Home   Weather   Bahawalpur   Past weeks
Flag for Pakistan

Past Weather in Bahawalpur, Pakistan — Yesterday and Last 2 Weeks

Now
70 °F

Passing clouds.


Feels Like: 70 °F
Forecast: 91 / 69 °F
Wind: 7 mph from Northeast

Location: Multan Airport

Current Time: Oct 19, 2019 at 2:34:24 am

Latest Report: Oct 19, 2019 at 1:30 am


Visibility: 2 mi

Pressure: 30.01 "Hg

Humidity: 69%

Dew Point: 59 °F

Location of BahawalpurLocation

Past Weather in Bahawalpur — Graph

°F

Bahawalpur Temperature Yesterday

Maximum temperature yesterday: 84 °F (at 2:30 pm)
Minimum temperature yesterday: 70 °F (at 5:00 am)
Average temperature yesterday: 77 °F

High & Low Weather Summary for the Past Weeks

 TemperatureHumidityPressure
High97 °F (Oct 14, 2:30 pm)94% (Oct 5, 8:30 pm)30.09 "Hg (Oct 5, 8:30 pm)
Low66 °F (Oct 7, 4:00 am)28% (Oct 13, 1:30 pm)29.39 "Hg (Oct 7, 8:30 pm)
Average81 °F61%29.88 "Hg
* Reported Oct 4 1:00 am — Oct 19 1:00 am, Bahawalpur. Weather by CustomWeather, © 2019

Note: Actual official high and low records may vary slightly from our data, if they occured in-between our weather recording intervals... More about our weather records

Advertising

Bahawalpur Weather History for the Previous 24 Hours

Scroll right to see more
 ConditionsComfort  
Time TempWeatherWind HumidityBarometerVisibility
1:00 am
Sat, Oct 19
72 °FPassing clouds.7 mph65%30.01 "Hg2 mi
12:30 am73 °FPassing clouds.7 mph65%30.01 "Hg2 mi
12:00 am73 °FPassing clouds.7 mph65%30.01 "Hg2 mi
11:30 pm
Fri, Oct 18
75 °FPassing clouds.7 mph57%30.01 "Hg2 mi
11:00 pm75 °FPassing clouds.12 mph57%30.01 "Hg2 mi
10:30 pm75 °FPassing clouds.12 mph57%30.01 "Hg2 mi
10:00 pm75 °FPassing clouds.9 mph57%30.01 "Hg2 mi
9:30 pm77 °FPassing clouds.12 mph57%30.01 "Hg2 mi
9:00 pm77 °FPassing clouds.12 mph57%29.98 "Hg2 mi
8:30 pm77 °FPassing clouds.9 mph57%29.98 "Hg2 mi
8:00 pm77 °FPassing clouds.16 mph57%29.98 "Hg2 mi
7:30 pm77 °FPassing clouds.16 mph54%29.98 "Hg2 mi
7:00 pm77 °FPassing clouds.12 mph54%29.98 "Hg2 mi
6:30 pm79 °FSmoke.9 mph54%29.95 "HgN/A
6:00 pm81 °FPassing clouds.9 mph48%29.95 "Hg2 mi
5:29 pm82 °FPassing clouds.12 mph40%29.95 "Hg2 mi
5:00 pm84 °FPassing clouds.12 mph40%29.92 "Hg2 mi
4:30 pm84 °FDuststorm.16 mph37%29.92 "Hg2 mi
4:00 pm84 °FDuststorm.16 mph37%29.92 "Hg2 mi
3:30 pm84 °FDuststorm.16 mph37%29.92 "Hg2 mi
3:00 pm84 °FHaze.14 mph37%29.92 "Hg2 mi
2:30 pm84 °FHaze.9 mph37%29.92 "Hg2 mi
2:00 pm82 °FHaze.12 mph45%29.95 "Hg2 mi
1:30 pm82 °FHaze.12 mph45%29.95 "Hg2 mi
1:00 pm81 °FHaze.12 mph48%29.98 "Hg2 mi
12:30 pm81 °FHaze.12 mph42%29.98 "Hg2 mi
12:00 pm81 °FHaze.12 mph42%30.01 "Hg2 mi
11:30 am79 °FHaze.12 mph45%30.01 "Hg2 mi
11:00 am79 °FHaze.12 mph45%30.04 "Hg2 mi
10:30 am79 °FHaze.12 mph48%30.01 "Hg2 mi
10:00 am77 °FDuststorm.16 mph44%30.01 "Hg2 mi
9:30 am77 °FDuststorm.16 mph44%30.01 "Hg2 mi
9:00 am73 °FDuststorm.16 mph53%29.98 "Hg2 mi
8:30 am73 °FDuststorm.16 mph53%29.98 "Hg2 mi
8:00 am72 °FDuststorm.16 mph57%29.98 "Hg2 mi
7:30 am72 °FDuststorm.16 mph57%29.98 "Hg2 mi
7:00 am72 °FPassing clouds.16 mph65%29.95 "Hg2 mi
6:30 am72 °FLow level haze.18 mph78%29.95 "Hg1 mi
6:00 am72 °FLow level haze.18 mph78%29.95 "Hg1 mi
5:30 am72 °FPassing clouds.21 mph78%29.95 "Hg1 mi
5:00 am70 °FPassing clouds.21 mph78%29.95 "Hg1 mi
4:30 am72 °FPassing clouds.23 mph73%29.92 "Hg1 mi
4:15 am73 °FDuststorm.21 mph78%29.92 "Hg2 mi
4:00 am73 °FClear.12 mph78%29.92 "Hg2 mi
3:30 am73 °FClear.9 mph78%29.89 "Hg2 mi
2:30 am75 °FClear.No wind74%29.86 "Hg2 mi
2:00 am75 °FClear.7 mph74%29.86 "Hg2 mi
Weather by CustomWeather, © 2019

See weather overview